Tracking 27112 objects as of 26-Mar-2023
HD Live streaming from Space Station
objects crossing your sky now

STTW-3

Track STTW-3 now!
STTW-3 is classified as:


NORAD ID: 19710
Int'l Code: 1988-111A
Perigee: 35,763.6 km
Apogee: 35,828.4 km
Inclination: 14.7 °
Period: 1,436.2 minutes
Semi major axis: 42167 km
RCS: 6.3096 m2 (large)
Launch date: December 22, 1988
Source: People's Republic of China (PRC)
Launch site: Xichang Space Center, China (XSC)
Your satellite tracking list
Your tracking list is empty




NASA's NSSDC Master Catalog

Two Line Element Set (TLE):
1 19710U 88111A   23084.84669240 -.00000376  00000-0  00000-0 0  9990
2 19710  14.6675 354.5944 0007686 120.4893 124.3540  1.00263625119013
Source of the keplerian elements: AFSPC